Overview Statistics Trail Chart Weather Telemetry Raw packets
 

This is the latest recevied weather packets stored in our database for station/object IU5GBO-13. If no packets are shown the sender has not sent any weather packets the latest 10 day(s).

<< 23 24 25 26 27 28 29 >>
Time Temp. Humidity Pressure Rain* Wind** Luminosity Snow
1777713975 22.78° C 23% 1025.9 hPa - - - -
1777713375 22.78° C 22% 1025.8 hPa - - - -
1777712775 22.78° C 23% 1026 hPa - - - -
1777712175 21.67° C 23% 1026 hPa - - - -
1777711575 21.67° C 23% 1026.1 hPa - - - -
1777710975 22.22° C 23% 1026.1 hPa - - - -
1777710375 21.67° C 24% 1026.1 hPa - - - -
1777709775 20.56° C 25% 1026.2 hPa - - - -
1777709175 21.67° C 25% 1026.2 hPa - - - -
1777708575 21.67° C 25% 1026.3 hPa - - - -
1777707975 21.67° C 27% 1026.3 hPa - - - -
1777707375 21.11° C 28% 1026.3 hPa - - - -
1777706775 20° C 28% 1026.4 hPa - - - -
1777706175 20° C 28% 1026.7 hPa - - - -
1777705570 19.44° C 29% 1026.8 hPa - - - -
1777704975 17.78° C 34% 1026.6 hPa - - - -
1777704375 16.67° C 37% 1026.7 hPa - - - -
1777703775 15.56° C 38% 1026.9 hPa - - - -
1777703175 14.44° C 39% 1026.9 hPa - - - -
1777702575 13.33° C 40% 1026.9 hPa - - - -
1777701975 13.33° C 43% 1026.8 hPa - - - -
1777701375 12.22° C 45% 1026.7 hPa - - - -
1777700775 12.22° C 44% 1026.8 hPa - - - -
1777700180 11.67° C 41% 1027 hPa - - - -
1777699575 11.11° C 41% 1026.8 hPa - - - -

* Rain since midnight (hover to see other rain measurements)
** Current wind speed in m/s (hover to see current wind gust speed)